Alexander City, AL

8:06 PM CDT on August 19, 2017 (GMT -0500)
Russell

Weather History for KALX - August, 2013

Change the Weather History Date:

Sunday, August 25, 2013

  Actual Average (KAUO) Record (KAUO)
Temperature  
Mean Temperature 80 °F -  
Max Temperature 87 °F 89 °F 100 °F (1983)
Min Temperature 72 °F 66 °F 59 °F (1984)
Cooling Degree Days 15    
Growing Degree Days 30 (Base 50)    
Moisture  
Dew Point 68 °F    
Average Humidity 70    
Maximum Humidity 87    
Minimum Humidity 47    
Precipitation  
Precipitation 0.00 in - - ()
Sea Level Pressure  
Sea Level Pressure 30.27 in    
Wind  
Wind Speed 4 mph (East)    
Max Wind Speed 13 mph    
Max Gust Speed 20 mph    
Visibility 10 miles    
Events      
Averages and records for this station are not official NWS values.
T = Trace of Precipitation, MM = Missing Value Source: NWS Daily Summary

Daily Weather History Graph

Daily Weather History Graph

Search for Another Location

Airport or City:

Trip Planner

Search our weather history database for the weather conditions in past years. The results will help you decide how hot, cold, wet, or windy it might be!

Date:

Astronomy

Aug. 25, 2013 Rise Set
Actual Time 6:13 AM CDT 7:17 PM CDT
Civil Twilight 5:48 AM CDT 7:42 PM CDT
Nautical Twilight 5:18 AM CDT 8:12 PM CDT
Astronomical Twilight 4:46 AM CDT 8:43 PM CDT
Moon 10:08 PM CDT (8/25) 10:56 AM CDT (8/25)
Length of Visible Light 13h 54m
Length of Day
13h 03m
Waning Gibbous, 75% of the Moon is Illuminated
Aug 25
Waning Gibbous
Aug 28
Last Quarter
Sep 5
New
Sep 12
First Quarter
Sep 19
Full

Hourly Weather History & Observations

Time (CDT) Temp. Heat Index Dew Point Humidity Pressure Visibility Wind Dir Wind Speed Gust Speed Precip Events Conditions
12:15 AM 75.6 °F - 68.9 °F 80% 30.23 in 10.0 mi ENE 4.6 mph - N/A   Clear
12:35 AM 75.6 °F - 69.1 °F 80% 30.24 in 7.0 mi East 4.6 mph - N/A   Clear
12:55 AM 75.6 °F - 69.3 °F 81% 30.24 in 7.0 mi East 3.5 mph - N/A   Clear
1:15 AM 75.6 °F - 69.8 °F 82% 30.24 in 7.0 mi East 3.5 mph - N/A   Scattered Clouds
1:35 AM 75.6 °F - 70.0 °F 83% 30.24 in 7.0 mi ENE 3.5 mph - N/A   Mostly Cloudy
1:55 AM 75.6 °F - 70.2 °F 83% 30.24 in 7.0 mi East 4.6 mph - N/A   Scattered Clouds
2:15 AM 75.6 °F - 70.7 °F 85% 30.25 in 7.0 mi East 3.5 mph - N/A   Scattered Clouds
2:35 AM 75.6 °F - 70.7 °F 85% 30.24 in 7.0 mi Calm Calm - N/A   Mostly Cloudy
2:55 AM 75.6 °F - 70.3 °F 84% 30.25 in 7.0 mi Calm Calm - N/A   Overcast
3:15 AM 75.6 °F - 70.7 °F 85% 30.24 in 7.0 mi East 3.5 mph - N/A   Overcast
3:35 AM 75.6 °F - 70.7 °F 85% 30.24 in 7.0 mi ENE 3.5 mph - N/A   Overcast
3:55 AM 75.6 °F - 70.3 °F 84% 30.24 in 10.0 mi East 4.6 mph - N/A   Overcast
4:15 AM 75.6 °F - 70.7 °F 85% 30.24 in 10.0 mi ENE 3.5 mph - N/A   Mostly Cloudy
4:35 AM 75.6 °F - 70.7 °F 85% 30.25 in 10.0 mi ENE 3.5 mph - N/A   Mostly Cloudy
4:55 AM 75.6 °F - 70.7 °F 85% 30.25 in 10.0 mi East 3.5 mph - N/A   Overcast
5:15 AM 75.6 °F - 70.7 °F 85% 30.25 in 10.0 mi ENE 4.6 mph - N/A   Mostly Cloudy
5:35 AM 75.6 °F - 70.7 °F 85% 30.25 in 10.0 mi ENE 3.5 mph - N/A   Scattered Clouds
5:55 AM 73.0 °F - 68.5 °F 86% 30.26 in 10.0 mi Calm Calm - N/A   Scattered Clouds
6:15 AM 73.0 °F - 68.9 °F 87% 30.27 in 7.0 mi NE 3.5 mph - N/A   Mostly Cloudy
6:35 AM 73.0 °F - 68.9 °F 87% 30.28 in 7.0 mi East 3.5 mph - N/A   Mostly Cloudy
6:55 AM 73.0 °F - 68.9 °F 87% 30.28 in 7.0 mi East 3.5 mph - N/A   Scattered Clouds
7:15 AM 75.6 °F - 70.7 °F 85% 30.29 in 10.0 mi ENE 5.8 mph - N/A   Scattered Clouds
7:35 AM 75.6 °F - 70.2 °F 83% 30.29 in 10.0 mi East 6.9 mph - N/A   Clear
7:55 AM 75.6 °F - 70.0 °F 83% 30.30 in 10.0 mi East 5.8 mph - N/A   Scattered Clouds
8:15 AM 75.6 °F - 68.2 °F 78% 30.30 in 10.0 mi East 8.1 mph - N/A   Mostly Cloudy
8:35 AM 75.9 °F - 67.5 °F 75% 30.31 in 10.0 mi East 4.6 mph - N/A   Scattered Clouds
8:55 AM 78.1 °F - 68.7 °F 73% 30.31 in 10.0 mi East 8.1 mph - N/A   Clear
9:15 AM 79.0 °F - 67.1 °F 67% 30.31 in 10.0 mi East 8.1 mph - N/A   Clear
9:35 AM 80.6 °F 82.9 °F 66.9 °F 63% 30.32 in 10.0 mi East 10.4 mph 19.6 mph N/A   Clear
9:55 AM 80.6 °F 82.7 °F 66.0 °F 61% 30.32 in 10.0 mi East 9.2 mph - N/A   Clear
10:15 AM 81.1 °F 83.2 °F 65.8 °F 60% 30.32 in 10.0 mi ESE 6.9 mph 10.4 mph N/A   Clear
10:35 AM 81.3 °F 82.9 °F 64.2 °F 56% 30.32 in 10.0 mi East 9.2 mph - N/A   Clear
10:55 AM 82.6 °F 84.5 °F 65.5 °F 56% 30.31 in 10.0 mi ESE 8.1 mph - N/A   Scattered Clouds
11:15 AM 82.8 °F 85.1 °F 66.4 °F 58% 30.31 in 10.0 mi ENE 6.9 mph - N/A   Scattered Clouds
11:35 AM 83.1 °F 85.7 °F 66.9 °F 58% 30.31 in 10.0 mi East 6.9 mph - N/A   Mostly Cloudy
11:55 AM 83.3 °F 85.7 °F 66.6 °F 57% 30.30 in 10.0 mi ESE 6.9 mph - N/A   Mostly Cloudy
12:15 PM 81.9 °F 84.1 °F 66.2 °F 59% 30.30 in 10.0 mi East 6.9 mph - N/A   Mostly Cloudy
12:35 PM 83.7 °F 85.3 °F 65.1 °F 53% 30.29 in 10.0 mi ESE 12.7 mph 19.6 mph N/A   Mostly Cloudy
12:55 PM 83.3 °F 84.8 °F 64.6 °F 53% 30.28 in 10.0 mi ESE 8.1 mph - N/A   Scattered Clouds
1:15 PM 84.0 °F 86.0 °F 65.5 °F 54% 30.27 in 10.0 mi ESE 5.8 mph - N/A   Scattered Clouds
1:35 PM 84.4 °F 86.6 °F 65.8 °F 54% 30.26 in 10.0 mi SE 5.8 mph - N/A   Scattered Clouds
1:55 PM 85.1 °F 87.4 °F 66.4 °F 53% 30.26 in 10.0 mi ENE 6.9 mph - N/A   Scattered Clouds
2:15 PM 85.6 °F 87.9 °F 66.4 °F 52% 30.25 in 10.0 mi ENE 4.6 mph - N/A   Scattered Clouds
2:35 PM 85.3 °F 87.1 °F 65.1 °F 51% 30.24 in 10.0 mi ENE 5.8 mph - N/A   Scattered Clouds
2:55 PM 84.9 °F 87.1 °F 65.8 °F 53% 30.24 in 10.0 mi ENE 8.1 mph - N/A   Scattered Clouds
3:15 PM 86.4 °F 88.7 °F 66.4 °F 51% 30.24 in 10.0 mi ENE 6.9 mph - N/A   Scattered Clouds
3:35 PM 87.8 °F 90.7 °F 67.1 °F 50% 30.24 in 10.0 mi East 5.8 mph - N/A   Scattered Clouds
3:55 PM 84.2 °F 85.4 °F 63.9 °F 50% 30.24 in 10.0 mi East 5.8 mph - N/A   Scattered Clouds
4:15 PM 86.2 °F 87.3 °F 63.9 °F 47% 30.23 in 10.0 mi ESE 5.8 mph - N/A   Scattered Clouds
4:35 PM 85.1 °F 86.6 °F 64.6 °F 50% 30.24 in 10.0 mi East 3.5 mph - N/A   Clear
4:55 PM 85.6 °F 86.6 °F 63.3 °F 47% 30.23 in 10.0 mi East 6.9 mph - N/A   Scattered Clouds
5:15 PM 85.1 °F 86.1 °F 63.3 °F 48% 30.24 in 10.0 mi East 5.8 mph - N/A   Clear
5:35 PM 84.4 °F 85.0 °F 62.2 °F 47% 30.24 in 10.0 mi ENE 5.8 mph - N/A   Clear
5:55 PM 84.4 °F 85.6 °F 63.7 °F 50% 30.24 in 10.0 mi East 4.6 mph - N/A   Clear
6:15 PM 83.3 °F 84.6 °F 64.0 °F 52% 30.24 in 10.0 mi ENE 3.5 mph - N/A   Clear
6:35 PM 81.9 °F 83.5 °F 64.8 °F 56% 30.25 in 10.0 mi East 3.5 mph - N/A   Clear
6:55 PM 80.6 °F 82.7 °F 65.8 °F 61% 30.25 in 10.0 mi Calm Calm - N/A   Clear
7:15 PM 78.1 °F - 69.6 °F 75% 30.26 in 10.0 mi Calm Calm - N/A   Clear
7:35 PM 78.1 °F - 68.9 °F 73% 30.26 in 10.0 mi Calm Calm - N/A   Clear
7:55 PM 76.1 °F - 67.8 °F 75% 30.27 in 10.0 mi Calm Calm - N/A   Clear
8:15 PM 77.5 °F - 67.3 °F 71% 30.28 in 10.0 mi East 3.5 mph - N/A   Clear
8:35 PM 75.6 °F - 66.6 °F 74% 30.28 in 10.0 mi East 3.5 mph - N/A   Clear
8:55 PM 75.6 °F - 66.2 °F 73% 30.29 in 10.0 mi Calm Calm - N/A   Clear
9:15 PM 75.6 °F - 68.0 °F 77% 30.29 in 10.0 mi Calm Calm - N/A   Clear
9:35 PM 75.6 °F - 68.0 °F 77% 30.29 in 10.0 mi Calm Calm - N/A   Clear
9:55 PM 75.6 °F - 68.4 °F 78% 30.29 in 10.0 mi Calm Calm - N/A   Clear
10:15 PM 75.6 °F - 68.4 °F 78% 30.29 in 10.0 mi Calm Calm - N/A   Clear
10:35 PM 75.6 °F - 68.7 °F 79% 30.29 in 10.0 mi ENE 3.5 mph - N/A   Clear
10:55 PM 75.6 °F - 68.5 °F 79% 30.29 in 10.0 mi ENE 3.5 mph - N/A   Clear
11:15 PM 75.6 °F - 68.9 °F 80% 30.29 in 10.0 mi ENE 3.5 mph - N/A   Clear
11:35 PM 73.0 °F - 67.1 °F 82% 30.29 in 10.0 mi Calm Calm - N/A   Clear
11:55 PM 72.9 °F - 67.3 °F 83% 30.29 in 10.0 mi East 3.5 mph - N/A   Clear